Wetbulb
66.47 70.77 71.10 70.98 70.06 70.26 69.74 70.35 70.52 70.70 71.16 71.31 71.62 71.28 71.15 71.45 71.51 71.34 71.29 71.26 71.05 70.47 69.84 69.49 69.54 69.00 68.40 67.71 67.57 68.29 68.77 68.82
51.54 54.12 64.69 70.63 70.63 69.98 69.69 69.78 69.77 70.10 70.62 70.74 70.28 70.28 70.54 70.97 70.60 70.77 71.00 71.05 70.50 70.07 69.26 69.00 68.96 68.05 67.50 67.19 67.28 67.96 68.43 68.92
48.22 50.14 54.14 56.81 70.32 70.63 70.32 70.11 69.80 69.41 70.01 70.09 68.97 70.41 70.14 70.23 69.65 69.75 69.99 69.87 69.57 69.16 68.73 68.26 67.68 67.24 67.24 67.24 67.53 68.21 68.44 68.79
45.35 46.76 51.01 53.67 66.62 69.94 69.99 69.88 69.86 69.46 69.36 69.95 70.15 69.82 69.92 70.22 69.19 68.72 69.08 68.92 68.77 68.31 68.07 67.46 67.19 65.45 66.50 67.62 66.61 67.82 68.20 68.24
43.90 44.62 47.27 51.22 53.92 57.32 69.47 69.04 69.11 69.70 69.17 69.44 69.46 69.52 69.93 69.93 69.26 68.97 68.45 68.43 67.87 67.71 67.22 66.90 65.45 64.86 63.40 62.55 65.45 67.24 67.64 67.97
43.33 43.87 45.44 47.34 50.82 54.01 57.21 69.22 68.67 68.62 69.61 69.41 68.38 68.67 68.70 69.10 68.93 69.25 68.33 67.93 66.95 66.29 66.04 64.99 64.36 64.32 62.35 60.14 64.50 66.95 66.95 67.46
42.19 43.39 43.85 45.12 47.47 52.34 53.81 56.62 68.63 68.73 69.00 69.56 68.72 67.96 67.30 67.80 67.93 68.56 68.16 67.29 66.37 65.45 64.79 64.39 63.78 63.35 60.75 61.42 63.75 66.47 66.61 67.37
41.62 42.21 43.38 44.39 45.09 47.79 51.64 54.84 57.74 68.59 68.77 69.01 69.07 67.95 67.00 67.10 67.00 67.25 67.41 66.78 65.91 65.41 64.13 63.86 63.46 62.98 59.30 63.16 64.98 66.36 66.64 66.70
40.55 41.57 42.18 42.37 43.40 45.14 49.24 53.08 56.47 58.25 68.73 68.64 68.94 68.51 66.61 66.80 66.54 66.55 67.19 66.68 65.45 64.55 62.44 62.50 61.82 61.53 59.11 61.79 65.24 65.73 66.39 66.74
40.62 41.93 41.39 41.48 42.08 43.94 48.26 50.27 51.53 54.35 60.77 69.00 68.76 68.29 66.83 66.65 66.19 66.21 66.71 66.08 65.17 64.01 62.52 61.95 62.03 60.99 57.89 59.86 64.38 65.39 66.07 66.86
39.86 40.52 40.58 41.11 42.08 43.34 45.50 47.03 49.82 53.01 55.50 64.74 68.67 68.41 67.61 66.55 66.28 65.90 66.45 65.51 64.59 63.31 62.29 61.85 61.39 60.32 57.88 59.32 62.08 64.42 64.88 65.74
40.41 40.41 40.75 41.05 41.98 42.08 43.03 44.45 46.50 48.66 50.64 55.98 65.45 68.46 68.15 67.06 66.39 65.86 66.06 64.92 64.00 63.14 61.65 61.77 61.50 60.83 58.75 58.72 59.77 61.35 63.38 64.69
39.72 39.47 40.00 40.45 40.05 39.74 40.60 40.58 43.24 45.89 48.37 50.56 54.18 60.96 68.21 67.38 66.71 66.01 65.52 64.70 63.86 63.17 61.52 60.40 59.04 60.04 56.51 56.42 56.92 58.60 60.33 62.16
39.38 39.32 39.58 40.44 40.08 40.07 41.50 41.00 42.95 45.22 47.86 50.34 54.22 59.17 63.10 67.67 67.13 65.79 65.28 64.43 63.92 62.99 61.07 59.64 59.12 59.66 57.81 56.26 55.37 57.25 58.76 59.61
38.86 39.28 39.33 40.36 40.49 40.01 40.56 41.59 41.83 42.56 44.50 45.75 48.28 51.64 57.57 57.91 65.79 66.57 65.48 64.83 63.68 63.00 61.22 59.39 57.61 58.90 58.77 56.14 52.71 53.77 57.07 57.39
37.50 39.07 39.14 40.01 40.11 39.90 39.36 38.62 38.45 40.84 42.86 45.68 47.75 50.40 53.42 57.68 58.68 58.90 58.70 65.10 63.79 63.36 62.43 60.16 58.76 57.32 58.51 58.56 57.71 56.27 55.02 53.34
36.97 37.88 39.24 39.31 39.42 39.53 39.68 38.52 39.70 40.65 42.10 43.91 47.11 51.14 53.97 57.52 58.24 57.76 58.08 57.17 64.56 63.61 62.43 60.42 59.27 58.43 58.04 57.60 55.34 56.10 55.36 53.48
36.72 37.00 37.54 39.17 38.93 39.24 38.68 38.86 38.47 38.43 39.91 41.12 44.07 46.84 51.93 57.15 57.08 59.37 58.84 57.80 57.07 61.13 62.93 61.17 59.72 58.97 58.99 58.56 58.17 56.65 55.17 54.18
36.63 36.64 37.07 38.01 38.87 38.63 38.08 38.99 39.26 38.70 38.64 40.13 40.70 43.80 46.15 48.55 53.89 55.94 57.25 56.82 57.85 58.25 61.14 61.22 60.08 58.92 58.85 58.40 59.34 59.26 59.16 58.35
35.33 35.99 36.33 37.69 38.07 38.62 38.54 38.75 39.11 39.22 39.13 39.60 40.70 41.29 43.61 46.42 48.56 52.04 57.01 57.02 58.76 58.45 57.41 61.82 60.84 59.55 59.00 59.11 59.21 59.77 59.99 59.76
MSLP
1014.10 1013.56 1013.70 1013.85 1013.10 1012.97 1013.00 1012.99 1012.64 1012.50 1012.75 1013.17 1013.50 1014.13 1014.95 1014.92 1015.40 1015.62 1016.03 1016.25 1016.43 1016.57 1017.07 1017.73 1018.00 1018.34 1018.65 1019.01 1019.51 1020.01 1020.33 1020.72
1016.26 1015.51 1014.42 1013.68 1013.87 1013.74 1013.16 1013.20 1013.08 1013.13 1012.75 1012.98 1013.48 1013.93 1014.88 1014.96 1015.31 1015.75 1016.09 1016.46 1016.65 1016.80 1017.22 1017.73 1018.06 1018.52 1018.83 1019.19 1019.57 1020.03 1020.39 1020.80
1017.91 1016.79 1015.81 1015.05 1013.39 1013.61 1013.81 1013.20 1013.20 1013.39 1013.39 1013.30 1013.66 1013.95 1014.47 1015.25 1015.22 1015.57 1016.18 1016.56 1016.86 1017.10 1017.35 1017.83 1018.23 1018.57 1019.04 1019.49 1019.81 1020.21 1020.55 1020.83
1018.79 1018.31 1017.16 1015.87 1014.10 1013.45 1013.40 1013.88 1013.57 1013.63 1013.69 1013.48 1013.59 1014.00 1014.24 1014.95 1015.33 1015.48 1016.16 1016.68 1017.01 1017.24 1017.46 1017.93 1018.37 1018.72 1019.16 1019.57 1019.96 1020.29 1020.69 1020.89
1019.61 1019.00 1018.13 1017.08 1015.89 1014.83 1013.20 1013.18 1013.25 1013.92 1013.78 1013.55 1013.57 1013.96 1014.25 1014.85 1015.37 1015.67 1016.11 1016.68 1017.11 1017.45 1017.81 1018.05 1018.47 1018.68 1019.11 1019.50 1020.04 1020.35 1020.75 1021.00
1020.46 1019.68 1018.73 1017.84 1016.94 1015.88 1014.82 1012.96 1013.15 1013.30 1013.86 1013.72 1013.72 1013.70 1014.17 1014.37 1014.83 1015.32 1015.89 1016.42 1016.90 1017.34 1017.68 1018.04 1018.40 1018.65 1018.91 1019.49 1019.99 1020.29 1020.76 1021.06
1021.28 1020.60 1019.98 1018.55 1018.04 1016.70 1015.75 1014.42 1012.76 1012.54 1013.08 1013.44 1014.20 1013.67 1014.05 1014.09 1014.38 1014.61 1015.36 1016.06 1016.61 1017.17 1017.59 1017.97 1018.36 1018.70 1019.01 1019.20 1019.71 1020.17 1020.59 1021.05
1022.03 1021.15 1020.19 1019.44 1018.62 1017.56 1016.26 1015.40 1013.98 1012.22 1012.38 1012.67 1013.02 1013.99 1013.76 1013.58 1014.33 1014.32 1014.64 1015.39 1016.32 1016.90 1017.44 1017.86 1018.30 1018.64 1019.05 1019.23 1019.45 1019.86 1020.36 1020.84
1022.33 1021.34 1020.49 1019.68 1018.85 1018.10 1017.01 1015.62 1014.79 1013.67 1011.82 1012.42 1012.35 1012.79 1013.52 1013.95 1013.74 1014.11 1014.21 1014.75 1015.82 1016.77 1017.33 1017.85 1018.33 1018.65 1019.14 1019.23 1019.35 1019.75 1020.16 1020.55
1022.51 1021.84 1021.00 1019.93 1019.25 1018.08 1016.62 1016.30 1014.81 1013.99 1013.13 1011.58 1011.66 1011.73 1012.52 1012.93 1013.55 1013.70 1013.68 1014.38 1015.08 1016.26 1016.94 1017.57 1018.10 1018.49 1019.01 1019.33 1019.20 1019.61 1020.01 1020.36
1022.60 1022.00 1021.31 1020.18 1019.06 1018.22 1017.48 1016.29 1015.42 1014.49 1013.54 1011.81 1010.42 1011.10 1011.29 1011.87 1012.51 1012.98 1013.68 1013.77 1014.54 1015.31 1016.37 1016.79 1017.51 1018.16 1018.72 1019.28 1019.52 1019.56 1019.94 1020.36
1023.33 1022.38 1021.74 1020.62 1019.47 1018.28 1017.51 1016.62 1015.89 1014.93 1014.09 1012.75 1010.90 1009.87 1010.43 1010.97 1011.65 1012.34 1012.69 1013.49 1013.93 1014.66 1015.41 1016.29 1016.52 1017.48 1018.61 1019.46 1019.81 1019.79 1019.81 1020.18
1023.62 1022.75 1021.93 1021.11 1019.87 1018.61 1017.62 1016.97 1015.97 1014.87 1013.98 1013.05 1012.20 1010.91 1009.16 1010.05 1010.67 1011.39 1012.06 1012.42 1012.92 1013.66 1014.59 1015.53 1016.58 1017.08 1018.36 1019.61 1020.15 1020.20 1020.11 1020.20
1023.76 1022.87 1022.05 1021.39 1020.70 1019.64 1018.77 1017.74 1016.33 1015.26 1014.00 1012.88 1011.93 1011.02 1009.83 1008.87 1009.51 1009.90 1010.66 1011.47 1012.34 1013.15 1013.79 1014.49 1015.87 1016.26 1016.63 1018.48 1019.86 1020.46 1020.15 1020.12
1023.78 1023.01 1022.35 1021.63 1020.80 1019.99 1019.02 1017.90 1016.43 1015.22 1014.35 1013.45 1012.36 1011.68 1010.31 1009.38 1008.53 1008.75 1009.33 1010.13 1011.10 1011.83 1012.54 1013.11 1013.91 1015.54 1015.33 1015.73 1018.06 1018.71 1019.30 1019.89
1024.24 1023.28 1022.45 1021.69 1020.92 1020.11 1019.30 1018.55 1017.23 1015.92 1014.91 1013.79 1012.53 1011.25 1010.15 1008.40 1008.88 1007.06 1009.63 1009.77 1010.04 1010.95 1011.68 1012.23 1012.66 1013.68 1014.90 1014.80 1015.00 1015.80 1017.60 1019.51
1024.50 1023.73 1022.65 1021.69 1021.00 1020.33 1019.64 1018.74 1017.74 1016.32 1015.02 1013.68 1012.38 1010.81 1009.36 1008.30 1007.72 1007.36 1007.80 1009.87 1009.75 1009.80 1010.65 1011.59 1011.94 1012.11 1012.87 1013.92 1014.45 1015.08 1015.37 1016.87
1024.52 1023.94 1022.92 1022.01 1020.99 1020.16 1019.46 1018.62 1017.45 1016.41 1015.32 1013.80 1012.65 1011.38 1009.50 1007.80 1007.92 1007.72 1007.20 1008.75 1008.49 1010.70 1009.98 1009.92 1010.81 1011.12 1011.62 1012.23 1012.69 1013.05 1013.98 1014.69
1024.71 1024.01 1023.08 1022.32 1021.29 1020.40 1019.65 1018.85 1017.80 1016.81 1015.67 1014.42 1013.11 1012.09 1010.66 1009.17 1007.86 1006.66 1005.86 1006.20 1007.01 1009.04 1008.88 1008.73 1009.47 1010.44 1010.52 1010.87 1011.55 1011.81 1012.32 1013.13
1025.01 1024.39 1023.41 1022.54 1021.66 1020.89 1020.09 1019.10 1017.98 1016.86 1015.94 1014.74 1013.56 1012.74 1011.70 1010.38 1008.95 1007.81 1007.02 1007.48 1007.69 1007.28 1009.18 1007.64 1008.77 1009.15 1009.86 1009.87 1010.60 1010.93 1011.52 1011.87
Wind_Speed
17 6 7 11 5 4 5 9 14 17 17 17 17 15 13 15 13 13 13 13 15 17 18 17 17 14 14 14 14 13 8 6
21 18 17 4 6 7 5 8 10 13 16 16 15 15 13 14 13 12 13 14 14 16 16 16 16 12 12 13 13 14 8 7
19 20 17 20 4 5 8 8 9 10 11 13 12 9 10 10 11 13 13 13 13 14 15 13 12 12 12 13 15 5 8 5
19 19 18 16 11 5 4 7 3 5 7 10 8 9 9 9 8 13 13 12 12 13 13 12 10 5 6 13 4 7 6 6
21 19 18 17 13 12 3 3 4 5 6 8 8 7 8 7 5 6 6 10 6 8 7 7 6 6 5 6 4 6 4 4
21 21 18 18 12 9 11 3 5 6 7 8 7 6 9 9 7 8 7 7 9 7 5 5 6 6 8 6 6 5 3 3
20 20 17 16 15 11 10 9 6 8 8 8 5 8 8 9 10 9 8 9 9 8 6 6 6 6 5 7 8 7 7 3
18 17 17 16 14 15 11 10 11 7 7 9 12 7 8 11 9 10 10 9 10 8 7 8 7 6 5 6 8 7 8 7
18 18 18 16 16 13 11 10 11 11 6 10 14 12 9 10 10 11 10 10 11 7 5 5 5 4 5 5 7 7 8 9
17 16 18 19 15 13 10 12 10 10 11 10 14 16 14 12 11 11 11 10 10 9 8 8 8 8 4 4 6 7 8 10
18 19 18 20 17 12 12 12 10 10 11 12 14 16 16 14 11 11 12 11 10 10 8 10 9 8 5 4 4 7 8 7
19 17 21 18 13 13 11 10 10 10 11 12 16 14 17 15 13 12 13 11 11 11 12 9 10 9 6 4 2 2 6 8
19 17 18 16 14 13 13 15 13 11 12 17 17 15 17 18 14 14 14 14 16 15 10 13 6 9 6 3 3 2 3 5
18 18 17 14 13 13 10 12 10 12 11 14 16 16 13 18 19 16 17 14 16 16 15 10 7 12 10 8 4 1 3 4
16 18 18 14 19 13 11 11 10 11 11 14 14 19 17 13 19 15 16 15 14 17 18 19 15 12 12 8 6 7 5 3
15 17 18 16 19 14 16 11 13 13 12 12 15 17 19 17 9 5 9 12 16 15 16 16 16 16 11 9 4 6 7 4
14 16 18 20 19 17 12 13 11 12 12 16 15 14 18 14 10 13 19 9 13 17 19 18 15 15 16 15 3 3 4 5
14 16 16 19 19 19 18 17 16 14 15 13 11 12 13 10 11 15 21 15 6 12 17 23 19 16 15 17 14 13 8 7
13 16 17 18 20 19 19 16 15 16 16 12 16 11 12 13 15 9 11 10 12 12 19 21 21 18 19 16 16 14 9 10
12 13 15 16 17 18 18 17 10 10 14 14 10 10 12 16 14 15 15 18 16 17 9 14 21 18 21 19 15 15 11 13
Wind_Direction
2 348 327 310 262 232 193 178 165 162 159 157 157 154 163 155 156 151 149 148 144 141 141 147 143 143 141 141 138 131 128 135
4 359 347 314 304 284 202 198 186 173 163 161 155 151 165 160 154 153 150 153 150 149 147 152 151 146 142 147 139 134 133 139
2 356 352 343 257 271 251 215 195 182 172 160 151 165 160 171 163 153 155 156 156 156 153 154 149 137 138 144 140 145 145 142
360 353 346 347 338 264 206 241 226 206 196 173 170 172 164 170 169 155 155 157 157 160 158 151 145 137 140 144 142 144 149 152
353 350 347 348 347 335 230 219 196 231 217 188 180 168 169 175 169 166 157 159 165 164 160 161 155 149 146 142 140 140 146 153
350 347 347 348 344 335 333 217 209 205 227 209 180 176 184 179 182 177 172 171 171 174 167 159 157 161 159 146 152 142 145 147
350 344 345 350 339 329 331 329 247 211 202 203 219 187 194 187 188 180 182 177 180 178 171 168 166 170 160 156 162 156 154 153
346 347 348 344 337 335 326 318 322 235 204 203 195 210 209 187 197 191 183 181 188 182 176 172 175 175 167 167 167 162 164 154
351 346 345 347 339 332 321 316 315 319 228 216 197 193 204 213 194 198 188 180 178 175 162 156 157 165 178 171 160 165 168 162
350 348 346 344 338 332 330 325 321 315 310 215 209 200 195 199 203 204 191 186 174 181 177 172 181 180 167 183 167 167 170 173
354 352 348 343 337 338 331 327 321 320 313 300 203 211 199 196 205 202 196 186 183 179 185 181 182 183 167 154 167 167 171 171
358 356 350 345 340 338 333 331 325 318 308 292 299 204 204 200 201 204 194 192 184 185 181 191 185 173 160 121 120 152 160 180
360 356 357 351 346 344 340 333 325 316 316 308 301 305 209 203 204 198 197 194 195 187 179 176 173 164 117 85 56 59 181 188
358 359 353 355 351 341 330 325 316 306 308 314 309 283 290 212 207 197 193 198 191 185 189 172 174 180 178 144 146 299 232 210
355 357 355 351 356 349 335 326 321 325 326 315 312 307 301 275 247 201 197 196 195 190 189 184 177 188 183 160 142 205 164 171
352 354 354 356 351 355 348 343 328 323 315 308 302 293 290 274 242 319 345 213 199 194 193 196 184 182 191 201 156 142 170 181
356 351 354 353 357 356 352 347 333 324 320 317 311 303 272 253 231 206 254 301 234 195 196 193 201 186 192 193 152 157 138 136
357 354 358 351 351 354 357 354 340 337 331 326 327 317 314 260 225 224 209 207 249 277 209 194 197 203 192 195 197 186 179 161
353 352 354 352 352 350 354 350 352 338 334 328 329 326 318 315 315 246 229 216 227 261 266 199 195 201 196 200 204 205 182 188
337 338 345 346 350 351 347 348 347 347 342 333 329 325 314 310 302 300 228 199 194 211 267 216 200 200 205 203 203 205 198 190